Time,TemperatureF,DewpointF,PressureIn,WindDirection,WindDirectionDegrees,WindSpeedMPH,WindSpeedGustMPH,Humidity,HourlyPrecipIn,Conditions,Clouds,dailyrainin,SoftwareType,DateUTC
2013-07-09 01:01:00,78.0,-99.9,-100.00,NW,307,13.0,15.0,-999,-99.99,,,-99.99,,2013-07-09 08:01:00,
2013-07-09 08:02:00,71.0,-99.9,-100.00,WNW,289,2.0,8.0,-999,-99.99,,,-99.99,,2013-07-09 15:02:00,
2013-07-09 08:12:00,71.0,-99.9,-100.00,WNW,289,2.0,8.0,-999,-99.99,,,-99.99,,2013-07-09 15:12:00,
2013-07-09 09:02:00,72.0,-99.9,-100.00,SSE,161,3.0,6.0,-999,-99.99,,,-99.99,,2013-07-09 16:02:00,
2013-07-09 09:12:00,72.0,-99.9,-100.00,SSE,161,3.0,6.0,-999,-99.99,,,-99.99,,2013-07-09 16:12:00,
2013-07-09 10:02:00,80.0,-99.9,-100.00,ENE,61,6.0,12.0,-999,-99.99,,,-99.99,,2013-07-09 17:02:00,
2013-07-09 10:12:00,80.0,-99.9,-100.00,ENE,61,6.0,12.0,-999,-99.99,,,-99.99,,2013-07-09 17:12:00,
2013-07-09 11:02:00,83.0,-99.9,-100.00,ENE,57,5.0,12.0,-999,-99.99,,,-99.99,,2013-07-09 18:02:00,
2013-07-09 11:11:00,83.0,-99.9,-100.00,ENE,57,5.0,12.0,-999,-99.99,,,-99.99,,2013-07-09 18:11:00,
2013-07-09 12:02:00,87.0,-99.9,-100.00,NE,42,9.0,17.0,-999,-99.99,,,-99.99,,2013-07-09 19:02:00,
2013-07-09 12:11:00,87.0,-99.9,-100.00,NE,42,9.0,17.0,-999,-99.99,,,-99.99,,2013-07-09 19:11:00,
2013-07-09 13:02:00,89.0,-99.9,-100.00,NE,36,7.0,18.0,-999,-99.99,,,-99.99,,2013-07-09 20:02:00,
2013-07-09 13:11:00,89.0,-99.9,-100.00,NE,36,7.0,18.0,-999,-99.99,,,-99.99,,2013-07-09 20:11:00,
2013-07-09 14:02:00,92.0,-99.9,-100.00,SE,126,5.0,12.0,-999,-99.99,,,-99.99,,2013-07-09 21:02:00,
2013-07-09 14:11:00,92.0,-99.9,-100.00,SE,126,5.0,12.0,-999,-99.99,,,-99.99,,2013-07-09 21:11:00,
2013-07-09 15:01:00,94.0,-99.9,-100.00,East,91,8.0,17.0,-999,-99.99,,,-99.99,,2013-07-09 22:01:00,
2013-07-09 15:11:00,94.0,-99.9,-100.00,East,91,8.0,17.0,-999,-99.99,,,-99.99,,2013-07-09 22:11:00,
2013-07-09 16:02:00,94.0,-99.9,-100.00,ENE,68,3.0,12.0,-999,-99.99,,,-99.99,,2013-07-09 23:02:00,
2013-07-09 16:12:00,94.0,-99.9,-100.00,ENE,68,3.0,12.0,-999,-99.99,,,-99.99,,2013-07-09 23:12:00,
2013-07-09 17:01:00,93.0,-99.9,-100.00,NNE,30,10.0,20.0,-999,-99.99,,,-99.99,,2013-07-10 00:01:00,
2013-07-09 17:11:00,93.0,-99.9,-100.00,NNE,30,10.0,20.0,-999,-99.99,,,-99.99,,2013-07-10 00:11:00,
2013-07-09 18:01:00,95.0,-99.9,-100.00,NNE,20,12.0,21.0,-999,-99.99,,,-99.99,,2013-07-10 01:01:00,
2013-07-09 18:11:00,95.0,-99.9,-100.00,NNE,20,12.0,21.0,-999,-99.99,,,-99.99,,2013-07-10 01:11:00,
2013-07-09 19:02:00,95.0,-99.9,-100.00,NNE,21,12.0,17.0,-999,-99.99,,,-99.99,,2013-07-10 02:02:00,
2013-07-09 19:12:00,95.0,-99.9,-100.00,NNE,21,12.0,17.0,-999,-99.99,,,-99.99,,2013-07-10 02:12:00,
2013-07-09 20:01:00,93.0,-99.9,-100.00,NE,48,12.0,16.0,-999,-99.99,,,-99.99,,2013-07-10 03:01:00,
2013-07-09 20:12:00,93.0,-99.9,-100.00,NE,48,12.0,16.0,-999,-99.99,,,-99.99,,2013-07-10 03:12:00,
2013-07-09 21:01:00,90.0,-99.9,-100.00,ENE,57,12.0,15.0,-999,-99.99,,,-99.99,,2013-07-10 04:01:00,
2013-07-09 21:11:00,90.0,-99.9,-100.00,ENE,57,12.0,15.0,-999,-99.99,,,-99.99,,2013-07-10 04:11:00,
2013-07-09 22:02:00,88.0,-99.9,-100.00,ENE,65,14.0,17.0,-999,-99.99,,,-99.99,,2013-07-10 05:02:00,
2013-07-09 22:12:00,88.0,-99.9,-100.00,ENE,65,14.0,17.0,-999,-99.99,,,-99.99,,2013-07-10 05:12:00,